Location: Albany
(35.0170°S, 117.8920°E)
Time: 18:09:20
(UTC+08:00)

SR - Pass Details

Date: 29 January 2021
Orbit: 573 x 882 km, 66.7° (Epoch: 25 February)

Event Time Altitude Azimuth Distance (km) Brightness Sun altitude
Rises 23:47:42 0° 195° (SSW) 2,861 ? -36.6°
Reaches altitude 10° 23:50:17 10° 182° (S) 1,928 ? -36.7°
Enters shadow 23:51:03 14° 176° (S) 1,682 ? -36.7°
